Location: Poughquag
(41.6090°N, 73.6820°W)
Time: 11:44:56
(UTC-04:00)

Vanguard 2 Rocket - Pass Details

Date: 05 June 2020
Orbit: 556 x 3324 km, 32.9° (Epoch: 06 July)

Event Time Altitude Azimuth Distance (km) Brightness Sun altitude
Rises 15:08:47 0° 244° (WSW) 3,268 10.3 56.0°
Reaches altitude 10° 15:10:55 10° 237° (WSW) 2,547 10.0 55.6°
Maximum altitude 15:16:39 43° 166° (SSE) 1,654 8.9 54.6°
Drops below altitude 10° 15:26:20 10° 100° (E) 4,276 10.1 52.9°
Sets 15:31:00 0° 95° (E) 5,756 10.6 52.1°
